User: anonymous   Login
Location: Unspecified
(0.0000°N, 0.0000°E)
Time: 04:09:03
(UTC+00:00)
Language:

KEPLER-1 (CASE) - Orbit

View from above orbital plane
View from above orbital plane
View from above satellite
View from above satellite

Ground track
Ground track

The orbit data is extracted from the following two-line orbital elements,

1 43729U 18096L   20295.21277908 +.00003695 +00000-0 +13484-3 0  9999
2 43729 097.4132 009.1056 0018790 046.5917 313.6883 15.28619160105637
Epoch (UTC): 21 October 2020 05:06:24
Eccentricity: 0.0018790
inclination: 97.4132°
perigee height: 467 km
apogee height: 493 km
right ascension of ascending node: 9.1056°
argument of perigee: 46.5917°
revolutions per day: 15.28619160
mean anomaly at epoch: 313.6883°
orbit number at epoch: 10563

The dashed part of the orbit path shows where the satellite is in the earth's shadow,  

DLR